| time (UTC) | temp C | wind direction | speed KPH | gust KPH | rain 1hr cm | rain 24hr cm | rain mn cm | humidity % | barometer mb |
| 20260504193017 | 28 | 143 | 3.2 | 12.9 | 0.00 | 0.00 | 0.00 | 84 | 1009.1 |
| 20260504192514 | 28 | 80 | 6.4 | 9.7 | 0.00 | 0.00 | 0.00 | 84 | 1009.0 |
| 20260504192012 | 28 | 54 | 11.3 | 12.9 | 0.00 | 0.00 | 0.00 | 84 | 1009.1 |
| 20260504191509 | 28 | 118 | 8.0 | 14.5 | 0.00 | 0.00 | 0.00 | 84 | 1008.9 |
| 20260504191005 | 28 | 90 | 4.8 | 12.9 | 0.00 | 0.00 | 0.00 | 84 | 1009.0 |
| 20260504190501 | 28 | 73 | 8.0 | 9.7 | 0.00 | 0.00 | 0.00 | 84 | 1009.0 |
| 20260504185957 | 28 | 67 | 14.5 | 16.1 | 0.00 | 0.00 | 0.00 | 84 | 1008.9 |
| 20260504185455 | 28 | 129 | 4.8 | 27.4 | 0.00 | 0.00 | 0.00 | 84 | 1009.0 |
| 20260504184951 | 28 | 60 | 8.0 | 11.3 | 0.00 | 0.00 | 0.00 | 84 | 1009.1 |
| 20260504184447 | 28 | 98 | 6.4 | 14.5 | 0.00 | 0.00 | 0.00 | 83 | 1009.1 |
| 20260504183942 | 28 | 53 | 1.6 | 17.7 | 0.00 | 0.00 | 0.00 | 83 | 1009.1 |
| 20260504183440 | 28 | 63 | 6.4 | 11.3 | 0.00 | 0.00 | 0.00 | 83 | 1009.2 |
| 20260504182938 | 28 | 86 | 9.7 | 17.7 | 0.00 | 0.00 | 0.00 | 83 | 1009.4 |
| 20260504182434 | 28 | 50 | 9.7 | 14.5 | 0.00 | 0.00 | 0.00 | 83 | 1009.4 |
| 20260504181932 | 28 | 101 | 16.1 | 22.5 | 0.00 | 0.00 | 0.00 | 83 | 1009.3 |
| 20260504181429 | 28 | 106 | 11.3 | 14.5 | 0.00 | 0.00 | 0.00 | 82 | 1009.2 |
| 20260504180927 | 28 | 68 | 6.4 | 14.5 | 0.00 | 0.00 | 0.00 | 82 | 1009.4 |
| 20260504180426 | 28 | 86 | 6.4 | 9.7 | 0.00 | 0.00 | 0.00 | 82 | 1009.7 |
| 20260504175924 | 28 | 112 | 1.6 | 9.7 | 0.00 | 0.00 | 0.00 | 82 | 1009.8 |
| 20260504175420 | 28 | 97 | 11.3 | 16.1 | 0.00 | 0.00 | 0.00 | 82 | 1009.8 |
| 20260504174918 | 28 | 99 | 6.4 | 16.1 | 0.00 | 0.00 | 0.00 | 82 | 1009.6 |
| 20260504174415 | 28 | 78 | 4.8 | 12.9 | 0.00 | 0.00 | 0.00 | 81 | 1009.7 |
| 20260504173913 | 29 | 55 | 4.8 | 14.5 | 0.00 | 0.00 | 0.00 | 81 | 1009.7 |
| 20260504173409 | 29 | 98 | 3.2 | 12.9 | 0.00 | 0.00 | 0.00 | 81 | 1009.8 |
| 20260504172907 | 29 | 113 | 6.4 | 9.7 | 0.00 | 0.00 | 0.00 | 81 | 1009.9 |
| 20260504172402 | 29 | 101 | 4.8 | 9.7 | 0.00 | 0.00 | 0.00 | 81 | 1009.9 |
| 20260504171859 | 29 | 98 | 9.7 | 12.9 | 0.00 | 0.00 | 0.00 | 81 | 1010.0 |
| 20260504171356 | 29 | 37 | 6.4 | 12.9 | 0.00 | 0.00 | 0.00 | 81 | 1009.9 |
| 20260504170853 | 29 | 93 | 9.7 | 16.1 | 0.00 | 0.00 | 0.00 | 81 | 1010.2 |
| 20260504170350 | 29 | 122 | 6.4 | 22.5 | 0.00 | 0.00 | 0.00 | 81 | 1010.4 |
| 20260504160308 | 30 | 132 | 6.4 | 17.7 | 0.00 | 0.00 | 0.00 | 80 | 1010.6 |
| 20260504150733 | 30 | 150 | 6.4 | 24.1 | 0.00 | 0.00 | 0.00 | 80 | 1011.0 |
| 20260504150230 | 30 | 227 | 4.8 | 16.1 | 0.00 | 0.00 | 0.00 | 80 | 1011.1 |
| 20260504141159 | 30 | 46 | 14.5 | 20.9 | 0.00 | 0.00 | 0.00 | 79 | 1010.2 |
| 20260504140656 | 30 | 69 | 9.7 | 22.5 | 0.00 | 0.00 | 0.00 | 79 | 1010.3 |
| 20260504140152 | 30 | 145 | 14.5 | 24.1 | 0.00 | 0.00 | 0.00 | 79 | 1010.1 |
| 20260504130620 | 30 | 93 | 16.1 | 20.9 | 0.00 | 0.00 | 0.00 | 79 | 1009.8 |
| 20260504130117 | 30 | 76 | 8.0 | 20.9 | 0.00 | 0.00 | 0.00 | 79 | 1009.8 |
| 20260504110508 | 31 | 110 | 12.9 | 16.1 | 0.00 | 0.00 | 0.00 | 75 | 1008.3 |
| 20260504100430 | 32 | 154 | 8.0 | 17.7 | 0.00 | 0.00 | 0.00 | 73 | 1007.1 |
| 20260504081823 | 32 | 153 | 9.7 | 27.4 | 0.00 | 0.00 | 0.00 | 70 | 1007.1 |
| 20260504081320 | 32 | 140 | 19.3 | 29.0 | 0.00 | 0.00 | 0.00 | 71 | 1007.1 |
| 20260504080816 | 32 | 108 | 12.9 | 24.1 | 0.00 | 0.00 | 0.00 | 72 | 1007.0 |
| 20260504080313 | 32 | 123 | 17.7 | 33.8 | 0.00 | 0.00 | 0.00 | 71 | 1007.0 |
| 20260504070235 | 35 | 96 | 3.2 | 3.2 | 0.00 | 0.00 | 0.00 | 60 | 1008.0 |
| 20260504060156 | 33 | 10 | 4.8 | 4.8 | 0.00 | 0.00 | 0.00 | 64 | 1009.5 |
| 20260504050623 | 33 | 42 | 8.0 | 14.5 | 0.00 | 0.00 | 0.00 | 65 | 1010.6 |
| 20260504050120 | 33 | 18 | 3.2 | 9.7 | 0.00 | 0.00 | 0.00 | 64 | 1010.5 |
| 20260504045617 | 33 | 7 | 3.2 | 4.8 | 0.00 | 0.00 | 0.00 | 65 | 1010.6 |
| 20260504045112 | 33 | 40 | 6.4 | 12.9 | 0.00 | 0.00 | 0.00 | 64 | 1010.6 |
| 20260504044611 | 33 | 50 | 9.7 | 14.5 | 0.00 | 0.00 | 0.00 | 65 | 1010.8 |
| 20260504044107 | 33 | 72 | 9.7 | 14.5 | 0.00 | 0.00 | 0.00 | 66 | 1010.9 |
| 20260504043604 | 33 | 41 | 9.7 | 16.1 | 0.00 | 0.00 | 0.00 | 66 | 1011.0 |
| 20260504043102 | 33 | 68 | 3.2 | 16.1 | 0.00 | 0.00 | 0.00 | 65 | 1011.1 |
| 20260504042558 | 33 | 21 | 4.8 | 11.3 | 0.00 | 0.00 | 0.00 | 65 | 1011.1 |
| 20260504042055 | 33 | 328 | 3.2 | 9.7 | 0.00 | 0.00 | 0.00 | 65 | 1011.1 |
| 20260504041551 | 33 | 29 | 4.8 | 12.9 | 0.00 | 0.00 | 0.00 | 65 | 1011.2 |
| 20260504041048 | 33 | 147 | 8.0 | 11.3 | 0.00 | 0.00 | 0.00 | 63 | 1011.2 |
| 20260504040545 | 33 | 85 | 1.6 | 3.2 | 0.00 | 0.00 | 0.00 | 64 | 1011.4 |
| 20260504040041 | 32 | 79 | 11.3 | 14.5 | 0.00 | 0.00 | 0.00 | 65 | 1011.4 |
| 20260504035538 | 32 | 113 | 8.0 | 12.9 | 0.00 | 0.00 | 0.00 | 64 | 1011.4 |
| 20260504035035 | 32 | 177 | 3.2 | 14.5 | 0.00 | 0.00 | 0.00 | 66 | 1011.5 |
| 20260504034533 | 32 | 92 | 6.4 | 20.9 | 0.00 | 0.00 | 0.00 | 66 | 1011.5 |
| 20260504034029 | 32 | 59 | 6.4 | 17.7 | 0.00 | 0.00 | 0.00 | 66 | 1011.5 |
| 20260504033528 | 32 | 25 | 12.9 | 24.1 | 0.00 | 0.00 | 0.00 | 66 | 1011.6 |
| 20260504033024 | 31 | 46 | 9.7 | 12.9 | 0.00 | 0.00 | 0.00 | 68 | 1011.7 |
| 20260504032521 | 32 | 55 | 14.5 | 17.7 | 0.00 | 0.00 | 0.00 | 66 | 1011.7 |
| 20260504032018 | 32 | 36 | 3.2 | 9.7 | 0.00 | 0.00 | 0.00 | 67 | 1011.9 |
| 20260504031515 | 32 | 22 | 6.4 | 11.3 | 0.00 | 0.00 | 0.00 | 67 | 1012.0 |
| 20260504031011 | 31 | 224 | 3.2 | 12.9 | 0.00 | 0.00 | 0.00 | 69 | 1012.0 |
| 20260504030509 | 31 | 102 | 8.0 | 20.9 | 0.00 | 0.00 | 0.00 | 69 | 1012.0 |
| 20260504030005 | 31 | 159 | 6.4 | 14.5 | 0.00 | 0.00 | 0.00 | 70 | 1012.1 |
| 20260504025502 | 31 | 42 | 9.7 | 20.9 | 0.00 | 0.00 | 0.00 | 69 | 1012.3 |
| 20260504024958 | 31 | 42 | 4.8 | 12.9 | 0.00 | 0.00 | 0.00 | 70 | 1012.1 |
| 20260504024455 | 31 | 114 | 6.4 | 14.5 | 0.00 | 0.00 | 0.00 | 70 | 1012.3 |
| 20260504023953 | 31 | 27 | 4.8 | 4.8 | 0.00 | 0.00 | 0.00 | 70 | 1012.3 |
| 20260504023449 | 31 | 3 | 9.7 | 11.3 | 0.00 | 0.00 | 0.00 | 71 | 1012.3 |
| 20260504022944 | 31 | 31 | 12.9 | 14.5 | 0.00 | 0.00 | 0.00 | 71 | 1012.3 |
| 20260504022441 | 30 | 78 | 6.4 | 11.3 | 0.00 | 0.00 | 0.00 | 73 | 1012.1 |
| 20260504021938 | 30 | 28 | 6.4 | 14.5 | 0.00 | 0.00 | 0.00 | 73 | 1012.3 |
| 20260504021435 | 31 | 351 | 3.2 | 16.1 | 0.00 | 0.00 | 0.00 | 73 | 1012.3 |
| 20260504020932 | 30 | 109 | 4.8 | 9.7 | 0.00 | 0.00 | 0.00 | 73 | 1012.4 |
| 20260504020429 | 31 | 7 | 11.3 | 14.5 | 0.00 | 0.00 | 0.00 | 72 | 1012.4 |
| 20260504015926 | 30 | 38 | 11.3 | 14.5 | 0.00 | 0.00 | 0.00 | 73 | 1012.4 |
| 20260504015421 | 31 | 38 | 6.4 | 9.7 | 0.00 | 0.00 | 0.00 | 72 | 1012.4 |
| 20260504014917 | 31 | 69 | 6.4 | 12.9 | 0.00 | 0.00 | 0.00 | 72 | 1012.2 |
| 20260504014414 | 30 | 30 | 6.4 | 14.5 | 0.00 | 0.00 | 0.00 | 72 | 1012.2 |
| 20260504013911 | 31 | 51 | 9.7 | 14.5 | 0.00 | 0.00 | 0.00 | 72 | 1012.2 |
| 20260504013409 | 30 | 88 | 9.7 | 11.3 | 0.00 | 0.00 | 0.00 | 73 | 1012.3 |
| 20260504012905 | 30 | 51 | 14.5 | 22.5 | 0.00 | 0.00 | 0.00 | 73 | 1012.1 |
| 20260504012403 | 30 | 26 | 9.7 | 17.7 | 0.00 | 0.00 | 0.00 | 73 | 1012.1 |
| 20260504011900 | 30 | 348 | 3.2 | 11.3 | 0.00 | 0.00 | 0.00 | 74 | 1011.9 |
| 20260504011357 | 30 | 29 | 9.7 | 14.5 | 0.00 | 0.00 | 0.00 | 73 | 1011.9 |
| 20260504010853 | 30 | 55 | 8.0 | 11.3 | 0.00 | 0.00 | 0.00 | 73 | 1011.8 |
| 20260504010348 | 30 | 24 | 4.8 | 12.9 | 0.00 | 0.00 | 0.00 | 73 | 1011.9 |
| 20260504005845 | 30 | 49 | 9.7 | 17.7 | 0.00 | 0.00 | 0.00 | 74 | 1011.8 |
| 20260504005341 | 30 | 62 | 6.4 | 17.7 | 0.00 | 0.00 | 0.00 | 74 | 1011.6 |
| 20260504004839 | 30 | 2 | 6.4 | 11.3 | 0.00 | 0.00 | 0.00 | 75 | 1011.6 |
| 20260504004337 | 30 | 37 | 6.4 | 12.9 | 0.00 | 0.00 | 0.00 | 75 | 1011.6 |
| 20260504003833 | 30 | 53 | 9.7 | 9.7 | 0.00 | 0.00 | 0.00 | 74 | 1011.6 |
| 20260504003330 | 30 | 61 | 1.6 | 9.7 | 0.00 | 0.00 | 0.00 | 76 | 1011.7 |
| 20260504002827 | 30 | 62 | 6.4 | 9.7 | 0.00 | 0.00 | 0.00 | 76 | 1011.5 |
| 20260504002323 | 30 | 62 | 6.4 | 9.7 | 0.00 | 0.00 | 0.00 | 76 | 1011.6 |
| 20260504001821 | 30 | 42 | 1.6 | 11.3 | 0.00 | 0.00 | 0.00 | 78 | 1011.6 |
| 20260504001318 | 29 | 50 | 9.7 | 12.9 | 0.00 | 0.00 | 0.00 | 78 | 1011.5 |
| 20260504000815 | 29 | 38 | 3.2 | 4.8 | 0.00 | 0.00 | 0.00 | 79 | 1011.2 |
| 20260504000312 | 29 | 79 | 1.6 | 6.4 | 0.00 | 0.00 | 0.00 | 80 | 1011.4 |
| 20260503235810 | 29 | 92 | 1.6 | 12.9 | 0.00 | 0.00 | 0.00 | 80 | 1011.2 |
| 20260503235307 | 29 | 106 | 8.0 | 12.9 | 0.00 | 0.00 | 0.00 | 79 | 1011.2 |
| 20260503234804 | 29 | 36 | 6.4 | 11.3 | 0.00 | 0.00 | 0.00 | 79 | 1011.0 |
| 20260503234302 | 29 | 67 | 6.4 | 12.9 | 0.00 | 0.00 | 0.00 | 79 | 1011.0 |
| 20260503233759 | 29 | 59 | 9.7 | 14.5 | 0.00 | 0.00 | 0.00 | 80 | 1011.0 |
| 20260503233255 | 29 | 20 | 8.0 | 11.3 | 0.00 | 0.00 | 0.00 | 81 | 1011.0 |
| 20260503232753 | 29 | 46 | 1.6 | 3.2 | 0.00 | 0.00 | 0.00 | 82 | 1010.9 |
| 20260503232250 | 28 | 64 | 9.7 | 16.1 | 0.00 | 0.00 | 0.00 | 82 | 1010.8 |
| 20260503231748 | 28 | 104 | 6.4 | 11.3 | 0.00 | 0.00 | 0.00 | 84 | 1010.8 |
| 20260503231245 | 28 | 91 | 4.8 | 11.3 | 0.00 | 0.00 | 0.00 | 85 | 1010.9 |
| 20260503230740 | 28 | 66 | 0.0 | 6.4 | 0.00 | 0.00 | 0.00 | 86 | 1010.8 |
| 20260503230238 | 28 | 102 | 3.2 | 9.7 | 0.00 | 0.00 | 0.00 | 86 | 1010.7 |
| 20260503225735 | 28 | 73 | 1.6 | 1.6 | 0.00 | 0.00 | 0.00 | 86 | 1010.7 |
| 20260503225229 | 28 | 81 | 6.4 | 9.7 | 0.00 | 0.00 | 0.00 | 86 | 1010.6 |
| 20260503224726 | 28 | 7 | 3.2 | 6.4 | 0.00 | 0.00 | 0.00 | 87 | 1010.1 |
| 20260503224224 | 28 | 49 | 1.6 | 9.7 | 0.00 | 0.00 | 0.00 | 87 | 1010.3 |
| 20260503223721 | 28 | 45 | 1.6 | 9.7 | 0.00 | 0.00 | 0.00 | 87 | 1010.3 |
| 20260503223219 | 28 | 89 | 3.2 | 6.4 | 0.00 | 0.00 | 0.00 | 87 | 1009.9 |
| 20260503222716 | 28 | 99 | 3.2 | 11.3 | 0.00 | 0.00 | 0.00 | 87 | 1010.1 |
| 20260503222213 | 28 | 123 | 6.4 | 16.1 | 0.00 | 0.00 | 0.00 | 87 | 1010.0 |
| 20260503221711 | 28 | 38 | 3.2 | 9.7 | 0.00 | 0.00 | 0.00 | 87 | 1010.0 |
| 20260503221208 | 28 | 49 | 6.4 | 9.7 | 0.00 | 0.00 | 0.00 | 87 | 1010.1 |
| 20260503220705 | 28 | 88 | 4.8 | 4.8 | 0.00 | 0.00 | 0.00 | 87 | 1009.8 |
| 20260503220202 | 28 | 43 | 6.4 | 11.3 | 0.00 | 0.00 | 0.00 | 86 | 1009.9 |
| 20260503215659 | 28 | 32 | 1.6 | 6.4 | 0.00 | 0.00 | 0.00 | 86 | 1010.0 |
| 20260503215155 | 28 | 118 | 6.4 | 11.3 | 0.00 | 0.00 | 0.00 | 86 | 1010.0 |
| 20260503214654 | 28 | 74 | 4.8 | 14.5 | 0.00 | 0.00 | 0.00 | 86 | 1009.8 |
| 20260503214149 | 28 | 36 | 1.6 | 6.4 | 0.00 | 0.00 | 0.00 | 86 | 1009.8 |
| 20260503213649 | 28 | 32 | 1.6 | 4.8 | 0.00 | 0.00 | 0.00 | 86 | 1009.8 |
| 20260503213145 | 28 | 13 | 0.0 | 3.2 | 0.00 | 0.00 | 0.00 | 86 | 1009.7 |
| 20260503212643 | 28 | 84 | 1.6 | 6.4 | 0.00 | 0.00 | 0.00 | 86 | 1009.8 |
| 20260503212140 | 28 | 85 | 3.2 | 6.4 | 0.00 | 0.00 | 0.00 | 86 | 1009.7 |
| 20260503211638 | 28 | 25 | 1.6 | 4.8 | 0.00 | 0.00 | 0.00 | 86 | 1009.6 |
| 20260503211132 | 28 | 23 | 0.0 | 1.6 | 0.00 | 0.00 | 0.00 | 86 | 1009.5 |
| 20260503210629 | 28 | 45 | 3.2 | 4.8 | 0.00 | 0.00 | 0.00 | 86 | 1009.4 |
| 20260503210126 | 28 | 30 | 1.6 | 4.8 | 0.00 | 0.00 | 0.00 | 87 | 1009.5 |
| 20260503205622 | 28 | 131 | 4.8 | 4.8 | 0.00 | 0.00 | 0.00 | 87 | 1009.2 |
| 20260503205118 | 28 | 89 | 1.6 | 3.2 | 0.00 | 0.00 | 0.00 | 86 | 1009.2 |
| 20260503204615 | 28 | 71 | 1.6 | 4.8 | 0.00 | 0.00 | 0.00 | 86 | 1009.2 |
| 20260503204113 | 28 | 49 | 1.6 | 6.4 | 0.00 | 0.00 | 0.00 | 86 | 1009.1 |
| 20260503203609 | 28 | 45 | 4.8 | 4.8 | 0.00 | 0.00 | 0.00 | 86 | 1009.2 |
| 20260503203107 | 28 | 50 | 1.6 | 4.8 | 0.00 | 0.00 | 0.00 | 86 | 1009.2 |
| 20260503202604 | 28 | 134 | 4.8 | 9.7 | 0.00 | 0.00 | 0.00 | 86 | 1009.1 |
| 20260503202102 | 28 | 353 | 0.0 | 6.4 | 0.00 | 0.00 | 0.00 | 86 | 1009.2 |
| 20260503201600 | 28 | 188 | 3.2 | 9.7 | 0.00 | 0.00 | 0.00 | 86 | 1009.3 |
| 20260503201057 | 28 | 35 | 1.6 | 6.4 | 0.00 | 0.00 | 0.00 | 86 | 1009.4 |
| 20260503200553 | 28 | 68 | 3.2 | 6.4 | 0.00 | 0.00 | 0.00 | 85 | 1009.2 |
| 20260503200050 | 28 | 88 | 4.8 | 9.7 | 0.00 | 0.00 | 0.00 | 85 | 1009.3 |
| 20260503195547 | 28 | 41 | 0.0 | 4.8 | 0.00 | 0.00 | 0.00 | 85 | 1009.2 |
| 20260503195044 | 28 | 71 | 1.6 | 4.8 | 0.00 | 0.00 | 0.00 | 85 | 1009.2 |
| 20260503194541 | 28 | 122 | 6.4 | 11.3 | 0.00 | 0.00 | 0.00 | 85 | 1009.4 |
| 20260503194041 | 28 | 96 | 4.8 | 6.4 | 0.00 | 0.00 | 0.00 | 86 | 1009.5 |
| 20260503193538 | 28 | 63 | 1.6 | 3.2 | 0.00 | 0.00 | 0.00 | 86 | 1009.5 |